Meteo Giornale » Osservazioni meteo Italia » Pisa-S Giusto

ore: 00:45 - Osservazioni Meteo Pisa-S Giusto
Lat. 43° 41' N Lon. 10° 23' E Alt. 2 metri s.l.m.

nuvoloso Europe/Rome

13 °C

Nuvoloso

Temp. 24 Ore

11 °C

13 °C

Ovest/Sud-Ovest

24 Km/h

Dew point 9 °C

Umidità 76 %

Visibilità  10 Km

Il sole sorge alle ore 07:43

Il sole tramonta alle ore 16:43

Data e Ora Cielo e Fenomeni T °C DP °C Um. % Pres. hPa Vis. km Vento km/h
Oggi h: 00:45 nuvoloso Nuvoloso 13 9 76 1007 10 O/SO 24
Oggi h: 00:15 molto_nuvoloso Molto Nuvoloso 13 9 76 1008 10 O/SO 22.2
Ieri h: 23:45 molto_nuvoloso Molto Nuvoloso 13 9 76 1008 10 SO 22.2
Ieri h: 23:15 molto_nuvoloso Molto Nuvoloso 13 9 76 1008 10 SO 25.9
Ieri h: 22:45 molto_nuvoloso Molto Nuvoloso 13 10 81 1008 10 O/SO 33.3
Ieri h: 22:15 molto_nuvoloso Molto Nuvoloso 13 10 81 1008 10 SO 33.3
Ieri h: 21:45 molto_nuvoloso Molto Nuvoloso 13 9 76 1008 10 SO 33.3
Ieri h: 21:15 molto_nuvoloso Molto Nuvoloso 13 9 76 1008 10 SO 35.2
Ieri h: 20:45 molto_nuvoloso Molto Nuvoloso 13 9 76 1009 10 SO 33.3
Ieri h: 20:15 molto_nuvoloso Molto Nuvoloso 13 9 76 1009 10 SO 27.8
Ieri h: 19:45 molto_nuvoloso Molto Nuvoloso 13 9 76 1009 10 SO 33.3
Ieri h: 19:15 molto_nuvoloso Molto Nuvoloso 13 10 81 1009 10 SO 24
Ieri h: 18:45 molto_nuvoloso Molto Nuvoloso 13 10 81 1009 10 O/SO 22.2
Ieri h: 18:15 molto_nuvoloso Molto Nuvoloso 13 11 87 1009 10 SO 22.2
Ieri h: 17:15 molto_nuvoloso Molto Nuvoloso 13 10 81 1010 10 SO 24
Ieri h: 16:45 molto_nuvoloso Molto Nuvoloso 13 10 81 1010 10 O/SO 29.6
Ieri h: 16:15 molto_nuvoloso Molto Nuvoloso 13 10 81 1010 10 O/SO 31.5
Ieri h: 15:45 molto_nuvoloso Molto Nuvoloso 13 10 81 1010 10 O/SO 29.6
Ieri h: 15:15 molto_nuvoloso Molto Nuvoloso 13 10 81 1009 10 O/SO 33.3
Ieri h: 14:45 molto_nuvoloso Molto Nuvoloso 13 11 87 1009 10 O/SO 29.6
Ieri h: 14:15 molto_nuvoloso Molto Nuvoloso 13 10 81 1010 10 O/SO 27.8
Ieri h: 13:45 molto_nuvoloso Molto Nuvoloso 13 10 81 1010 10 O/SO 33.3
Ieri h: 13:15 molto_nuvoloso Molto Nuvoloso 13 10 81 1010 10 O/SO 33.3
Ieri h: 12:45 molto_nuvoloso Molto Nuvoloso 13 10 81 1011 10 O/SO 31.5
Ieri h: 12:15 molto_nuvoloso Molto Nuvoloso 13 10 81 1011 10 O/SO 24
Ieri h: 11:45 molto_nuvoloso Molto Nuvoloso 13 11 87 1011 10 O/SO 29.6
Ieri h: 11:15 molto_nuvoloso Molto Nuvoloso 13 11 87 1011 10 O/SO 25.9
Ieri h: 10:45 coperto_pioggia Pioggia Debole 13 10 81 1011 10 SO 25.9
Ieri h: 10:15 molto_nuvoloso Molto Nuvoloso 13 10 81 1011 10 SO 31.5
Ieri h: 09:45 molto_nuvoloso Molto Nuvoloso 12 10 87 1011 10 O/SO 29.6
Ieri h: 09:15 molto_nuvoloso Molto Nuvoloso 12 10 87 1011 10 O/SO 33.3
Ieri h: 08:45 molto_nuvoloso Molto Nuvoloso 12 10 87 1011 10 O/SO 33.3
Ieri h: 08:15 coperto_pioggia Pioggia Debole 12 10 87 1011 10 O/SO 33.3
Ieri h: 07:45 coperto_pioggia Pioggia Debole 11 10 93 1011 3 SO 27.8
Ieri h: 07:15 coperto_pioggia Pioggia 12 10 87 1011 4 SO 33.3
Ieri h: 06:45 nuvoloso Nuvoloso 12 9 81 1011 7 SO 31.5
Ieri h: 06:15 coperto_pioggia Pioggia Debole 12 10 87 1011 7 O/SO 40.7
Ieri h: 05:45 coperto_pioggia Pioggia Debole 12 11 93 1012 7 O/SO 35.2
Ieri h: 05:15 coperto_pioggia Pioggia Debole 12 10 87 1012 7 O/SO 35.2
Ieri h: 04:45 coperto_pioggia Pioggia Debole 12 10 87 1013 6 O/SO 35.2
Ieri h: 04:15 coperto_pioggia Pioggia Debole 12 10 87 1013 6 O/SO 33.3
Ieri h: 03:45 coperto_pioggia Pioggia Debole 11 9 87 1013 6 O/SO 33.3
Ieri h: 03:15 coperto_pioggia Pioggia 11 8 81 1013 5 O/SO 40.7
Ieri h: 02:45 coperto_pioggia Pioggia 11 9 87 1014 4 O/SO 37
Ieri h: 02:15 coperto_pioggia Pioggia Debole 11 10 93 1014 6 O/SO 35.2
Ieri h: 01:45 coperto_pioggia Pioggia Debole 12 9 81 1014 8 O/SO 25.9
Ieri h: 01:15 coperto_pioggia Pioggia Debole 12 7 71 1015 10 SO 35.2
Ieri h: 00:45 molto_nuvoloso Molto Nuvoloso 12 7 71 1015 10 SO 37